Regional Weather Roundup
Issued by NWS State College, PA

Home | Current Version | Previous Version | Text Only | Print | Product List | Glossary Off
Versions: 1 2 3 4 5 6 7 8 9 10 11 12 13 14 15 16 17 18 19 20 21 22 23 24 25 26 27 28 29 30 31 32 33 34 35 36 37 38 39 40 41 42 43 44 45 46 47 48 49 50

000
ASUS41 KCTP 222010
RWRCTP

REGIONAL WEATHER ROUNDUP
NATIONAL WEATHER SERVICE STATE COLLEGE PA
300 PM EST MON DEC 22 2014

Note: "fair" indicates few or no clouds below 12,000 feet with no
significant weather and/or obstructions to visibility.

* = STATION THAT DOES NOT REPORT PRECIPITATION /E.G. RAIN...SNOW...ETC/
    THUNDER OR FOG.

PAZ002>004-007>009-013>016-020>023-029>032-222100-
WESTERN PENNSYLVANIA

CITY           SKY/WX    TMP DP  RH WIND       PRES   REMARKS
ERIE           PTSUNNY   43  27  53 SE7       30.02F
MEADVILLE      PTSUNNY   37  26  64 VRB5      30.00F
FRANKLIN*      CLOUDY    34  25  69 SE12      30.03S
NEW CASTLE       N/A     40  31  70 CALM      30.01F
BEAVER COUNTY  SUNNY     41  30  65 SE8       29.99F
BUTLER*        SUNNY     39  28  65 E9        30.02F
PITTSBURGH INT PTSUNNY   45  31  58 E8        29.99F
PITTSBURGH     SUNNY     45  28  51 SE10      29.99F
INDIANA*       MOSUNNY   39  28  65 SE10      30.08F
LATROBE        PTSUNNY   41  28  60 E10       30.04F
WASHINGTON CO* NOT AVBL
$$

PAZ004>006-010>012-017>019-024>028-033>037-041-042-045-046-049>053-222100-
CENTRAL PENNSYLVANIA

CITY           SKY/WX    TMP DP  RH WIND       PRES   REMARKS
BRADFORD       CLOUDY    32  24  72 SE10      30.04R
DUBOIS         MOSUNNY   34  26  72 SE14G21   30.04F
CLEARFIELD     CLOUDY    33  24  69 VRB6      30.10S
JOHNSTOWN      CLOUDY    30  23  75 SE6       30.03F
ALTOONA        CLOUDY    32  24  72 NE3       30.11F
STATE COLLEGE  CLOUDY    32  25  74 CALM      30.15S
WILLIAMSPORT   CLOUDY    35  25  66 S7        30.20R
SELINSGROVE    CLOUDY    35  26  69 CALM      30.21S
FT INDIANTOWN  CLOUDY    37  29  73 NE5       30.20S
CAPITAL CITY   CLOUDY    36  27  69 CALM      30.21S
HARRISBURG     CLOUDY    35  27  72 CALM      30.20F
YORK           CLOUDY    34  27  75 CALM      30.19S HAZE
$$

PAZ038>040-043-044-047-048-054-055-060>062-067>071-222100-
EASTERN PENNSYLVANIA

CITY           SKY/WX    TMP DP  RH WIND       PRES   REMARKS
SCRANTON       SUNNY     40  27  59 S10G17    30.16F
MOUNT POCONO   FOG       32  30  92 SE7       30.14F VSB 1/2
ALLENTOWN      CLOUDY    41  32  70 NE6       30.21F
QUAKERTOWN*    CLOUDY    41  32  70 CALM      30.21S
READING        CLOUDY    41  30  65 E5        30.19F
LANCASTER      CLOUDY    38  30  73 E5        30.19F
COATESVILLE    MOCLDY    41  34  75 E5        30.18F
POTTSTOWN      CLOUDY    41  32  70 NE8       30.21F
BLUE BELL      MOSUNNY   45  36  70 E3        30.20S
DOYLESTOWN     CLOUDY    40  35  83 CALM      30.20F
WILLOW GROVE   NOT AVBL
NORTH PHILA    CLOUDY    44  34  67 NE8       30.22F
PHILADELPHIA   CLOUDY    45  34  65 NE7       30.21F
$$



USA.gov is the U.S. government's official web portal to all federal, state and local government web resources and services.